Location: Helsinki
(60.1699°N, 24.9384°E)
Time: 20:49:26
(UTC+03:00)

A-11 Canister half - Pass Details

Date: 02 June 2024
Orbit: 1525 x 1683 km, 47.3° (Epoch: 14 June)

Event Time Altitude Azimuth Distance (km) Brightness Sun altitude
Rises 02:22:20 0° 277° (W) 4,734 11.5 -6.6°
Reaches altitude 10° 02:26:46 10° 259° (W) 3,774 10.8 -6.4°
Maximum altitude 02:32:14 17° 224° (SW) 3,277 10.2 -6.2°
Drops below altitude 10° 02:37:48 10° 188° (S) 3,840 10.4 -6.0°
Enters shadow 02:41:56 - 172° (S) 4,736 11.0 -5.9°
